Wind_Speed
14 12 12 12 11 12 12 13 14 14 13 12 11 11 12 11 10 10 8 9 10 12 14 14 12 11 10 9 8 8 9 10 11 11 9 7 7 7 7 9 9 9 11 12 13 16 19 19 19 18 18 18 18 18 18 18 18 18 18 18 17 17 17 17 17 17 17 17 16 16 15 15 15 14 13 13 13 12 12 12 12 12 12 11 10
14 12 12 12 11 12 13 14 15 15 14 13 12 13 12 11 11 11 10 11 12 14 16 15 12 11 10 9 9 9 9 9 10 10 9 7 6 6 6 7 8 8 9 11 12 14 18 21 20 19 20 20 19 20 20 19 19 19 19 19 19 19 18 18 18 18 18 18 18 17 16 16 15 15 14 13 13 13 13 13 13 13 13 12 12
14 13 13 12 12 13 13 14 15 15 15 14 14 14 12 11 12 12 12 14 14 16 17 16 13 11 10 9 9 8 9 9 9 8 8 7 7 7 6 7 8 8 8 10 14 15 16 18 21 21 21 21 21 21 20 19 19 20 20 20 20 20 20 19 19 19 18 18 19 18 18 17 17 16 15 15 14 14 14 15 14 14 13 13 12
17 16 14 13 13 13 13 14 14 15 15 15 15 14 12 12 12 12 13 15 16 17 16 15 12 11 10 9 8 8 9 9 9 8 7 7 7 8 8 8 9 8 8 8 13 17 17 16 19 21 22 22 21 21 20 20 20 21 21 22 22 22 21 21 21 20 19 19 19 19 19 19 18 17 17 16 16 16 16 16 15 14 14 13 13
18 17 16 15 14 14 14 14 14 14 15 15 15 14 13 12 12 12 13 14 15 14 13 11 10 9 8 8 8 9 10 10 10 10 10 9 9 10 10 10 10 9 8 7 9 14 17 17 18 21 23 24 23 21 21 20 21 22 23 23 24 23 23 22 22 21 21 20 20 20 20 20 19 19 18 18 17 17 17 17 17 16 15 15 14
19 18 17 16 16 15 15 14 14 14 14 14 13 13 12 11 11 11 11 12 11 10 10 10 10 9 8 8 8 10 11 11 12 12 12 12 12 12 11 11 11 10 9 9 8 9 13 15 17 20 23 25 25 25 24 22 21 22 23 24 25 25 24 24 23 22 22 21 21 21 21 21 21 20 20 19 19 19 18 18 18 17 17 16 16
19 19 18 17 16 16 15 14 13 13 12 11 11 11 10 9 10 10 10 9 8 8 9 10 10 9 9 9 10 10 11 11 12 13 13 13 13 12 12 12 12 11 11 10 9 8 9 11 13 17 21 24 26 27 26 25 24 24 24 24 26 27 26 26 25 24 24 23 22 22 21 21 21 21 20 20 20 20 20 19 19 18 18 18 17
20 19 19 18 17 16 13 12 12 11 10 10 9 9 8 8 8 8 9 9 9 8 8 9 9 10 11 11 11 10 10 11 12 12 12 12 12 12 11 11 10 9 10 10 9 8 8 8 10 12 16 19 24 28 29 28 26 25 25 25 26 27 27 28 27 26 26 25 24 24 23 23 22 21 21 21 21 21 21 20 20 19 19 19 19
20 19 20 19 17 14 11 10 10 10 9 9 8 7 7 7 6 6 8 10 11 11 10 10 11 12 13 11 11 10 11 12 11 11 11 11 11 11 10 9 8 6 5 7 7 7 7 8 9 10 12 14 17 22 26 28 27 26 26 25 26 28 28 29 28 28 28 27 26 26 25 24 23 23 22 22 22 22 22 22 22 21 21 20 20
19 19 18 17 15 13 10 9 9 8 8 8 8 7 7 7 6 6 8 10 12 12 12 13 13 14 14 12 11 10 11 10 10 10 10 11 12 12 12 11 9 7 4 3 4 4 5 6 7 9 10 11 13 14 18 23 27 30 30 27 28 30 30 30 29 29 29 29 28 28 27 26 25 24 24 23 23 23 23 23 23 23 22 22 21
18 17 15 14 13 11 9 8 7 6 7 8 8 8 7 7 7 8 9 10 11 12 12 13 13 14 14 13 10 10 8 8 10 11 10 12 13 13 13 13 11 10 8 7 6 5 4 5 6 8 9 10 11 12 13 16 21 26 30 31 32 33 31 30 30 30 30 30 30 29 29 29 27 26 26 25 25 25 24 24 24 24 24 23 23
15 14 12 11 11 10 7 6 5 5 6 7 8 8 8 8 10 10 10 11 11 10 10 11 12 13 14 13 10 8 6 8 12 12 12 12 13 13 13 12 12 12 11 10 9 7 6 5 5 6 8 9 11 12 13 16 18 20 23 27 31 33 32 31 31 30 30 30 30 29 30 31 30 29 29 28 27 27 27 26 25 25 25 25 24
12 11 10 10 10 8 6 4 4 5 6 6 7 7 8 9 10 10 10 11 10 9 9 10 9 9 11 13 10 6 6 9 13 11 11 12 12 13 13 12 12 12 11 11 10 9 8 7 6 5 5 6 7 8 11 13 16 18 20 24 28 30 31 32 31 31 31 30 30 31 31 31 31 31 30 30 30 30 29 29 28 27 27 26 26
10 10 10 10 10 9 5 4 5 5 5 5 6 5 6 6 6 8 9 9 9 9 7 6 5 5 7 9 9 7 7 8 12 10 10 11 11 12 13 13 13 14 12 11 11 10 8 7 7 6 5 4 4 5 6 8 10 12 15 18 23 26 29 31 31 31 31 31 31 32 32 31 32 32 32 32 32 32 32 31 30 30 29 28 28
10 10 12 13 11 8 7 6 5 5 5 5 4 3 3 3 5 7 7 7 8 7 5 3 3 5 5 3 4 4 3 5 9 9 8 9 11 13 14 14 13 15 14 13 12 10 8 7 7 6 6 5 4 5 5 6 6 8 10 12 15 18 23 27 30 32 32 32 32 33 33 33 32 32 32 32 33 33 33 33 33 32 31 31 30
13 14 14 14 11 10 8 6 5 6 6 5 4 4 3 4 4 5 5 4 4 4 4 3 2 2 2 0 1 1 1 3 6 5 6 7 11 14 14 14 14 15 16 15 13 11 9 8 7 7 6 6 6 6 6 6 6 7 9 11 12 13 15 17 21 27 30 31 32 32 33 34 33 33 33 33 33 33 34 34 34 34 33 33 32
16 16 15 14 13 10 8 7 7 7 7 6 5 5 4 3 3 3 3 3 2 2 2 3 2 1 1 1 1 1 1 2 4 3 4 5 9 13 14 14 14 16 17 17 15 13 11 9 8 7 7 6 6 6 6 6 7 8 9 11 11 13 15 15 16 19 22 27 29 30 31 31 32 32 33 33 34 34 34 34 35 35 35 34 34
17 16 15 14 12 10 9 8 9 8 7 5 4 3 2 2 2 2 1 1 1 2 3 4 1 3 3 3 2 1 2 1 1 1 4 4 6 11 12 13 14 16 18 17 16 15 13 12 10 9 8 8 7 8 8 7 7 7 8 10 11 12 13 15 16 16 18 21 24 26 28 28 29 30 31 32 33 33 34 35 35 36 36 36 35
17 16 15 13 12 11 10 9 8 7 6 5 4 4 3 3 2 2 0 1 1 1 3 4 1 4 3 3 3 3 2 1 1 0 2 2 5 9 10 11 12 14 16 16 16 15 15 14 13 12 10 9 9 9 10 9 9 9 8 8 9 11 12 13 15 16 17 18 20 22 24 25 27 28 29 30 31 32 33 35 36 36 36 37 37
16 15 15 14 13 12 11 10 9 8 7 7 6 5 5 4 3 2 1 2 1 1 1 1 2 4 4 5 4 4 4 3 2 2 2 1 4 6 8 9 9 11 14 14 14 14 14 14 14 15 13 12 12 11 12 12 11 12 11 10 10 11 12 13 15 16 18 19 20 21 22 23 25 26 27 28 30 31 32 33 34 36 37 37 37
16 16 15 14 14 13 12 11 9 9 9 8 7 7 6 6 4 3 2 2 2 2 2 2 4 5 5 5 5 5 6 4 2 2 3 1 2 2 6 10 8 8 11 12 12 12 11 12 13 14 14 14 14 15 15 15 14 13 13 13 12 13 14 14 15 16 17 19 21 22 23 23 23 24 25 26 28 29 30 31 31 34 36 38 38
16 15 15 14 14 13 12 10 9 9 9 8 7 7 7 6 5 4 3 2 2 1 1 2 4 5 6 6 6 7 6 4 3 3 2 2 3 3 6 6 6 8 10 12 11 10 9 9 11 12 12 13 14 16 16 17 17 16 15 14 14 14 15 16 16 17 17 18 20 21 23 23 24 24 24 25 27 28 29 30 30 31 33 36 38
16 15 14 14 14 13 11 9 8 8 8 7 7 7 6 6 5 4 4 2 1 1 1 2 4 5 6 6 7 7 7 6 6 6 4 4 4 4 5 6 7 7 10 13 11 9 8 7 9 10 11 12 13 15 16 17 18 18 18 17 16 15 15 16 17 18 18 19 20 21 21 22 22 23 23 24 26 27 29 30 31 31 32 34 36
16 16 16 15 15 13 11 8 8 9 8 7 7 7 6 6 5 4 3 2 1 2 2 2 5 6 6 5 5 6 6 6 7 8 7 7 5 3 4 6 5 7 11 13 12 12 9 6 9 10 10 12 13 15 16 17 19 19 20 20 19 18 17 16 17 18 19 21 21 22 22 22 21 22 23 24 25 26 28 30 32 32 32 33 34
18 18 17 16 15 14 11 8 7 8 8 8 7 7 6 5 5 4 3 3 3 3 3 3 4 5 6 6 6 6 6 7 8 9 9 8 6 4 4 4 3 7 11 10 10 13 10 8 10 10 10 12 13 15 17 18 20 21 22 23 22 21 20 19 18 18 19 21 22 23 24 24 24 23 24 24 25 25 26 28 31 32 32 33 33
20 19 16 16 16 14 11 8 8 8 7 7 7 6 6 5 5 4 4 5 5 5 5 5 6 6 7 8 9 9 8 9 9 10 11 10 8 6 4 3 4 6 8 7 8 9 9 12 13 10 10 12 13 15 17 19 21 22 23 24 25 24 23 23 22 21 21 21 22 23 24 26 26 26 26 26 26 26 26 27 28 31 33 33 33
20 18 16 15 15 14 12 10 8 8 7 6 6 6 5 5 4 4 5 6 6 7 7 8 9 9 10 10 11 11 11 11 11 11 12 12 11 10 7 3 2 4 4 6 8 9 10 13 14 12 11 13 15 16 18 20 21 23 24 25 26 26 26 26 26 25 24 23 23 23 24 25 27 28 28 28 28 28 28 28 28 29 31 33 34
20 18 16 15 15 15 14 11 9 8 7 6 6 6 5 5 5 6 6 5 5 5 6 8 9 11 12 13 14 14 13 13 14 14 14 13 13 13 11 7 4 2 2 3 4 7 9 10 11 12 13 15 17 18 20 22 22 24 26 26 27 27 27 28 28 28 28 27 26 25 25 25 26 28 30 30 31 31 30 30 30 30 30 32 34
20 19 17 16 16 16 15 12 11 9 9 8 7 6 7 7 7 8 8 7 6 7 7 9 10 11 13 15 16 17 16 15 16 16 15 15 15 15 15 13 9 4 1 2 3 4 7 10 10 11 16 19 19 19 22 23 24 25 26 27 28 28 29 30 30 30 30 30 29 28 27 27 26 27 29 30 31 32 32 32 32 32 31 31 33
20 18 18 18 18 17 15 13 12 11 11 11 9 8 9 9 9 10 10 10 10 10 10 10 11 11 13 15 16 17 18 17 18 18 16 15 15 16 16 16 14 10 6 4 4 7 8 10 13 16 21 23 21 21 23 25 26 27 27 28 28 29 30 31 31 32 32 32 32 31 31 30 29 29 29 30 31 32 33 33 34 34 34 33 32
20 19 19 19 19 17 16 14 14 13 13 13 11 10 11 11 11 11 11 11 12 11 11 11 12 13 14 15 16 17 18 19 20 19 17 16 17 18 18 17 17 16 14 7 4 8 11 11 17 23 24 24 24 24 25 26 28 29 29 29 29 30 31 31 32 33 33 33 33 34 34 33 32 31 30 30 31 32 33 33 34 35 35 34 34
20 20 19 19 19 18 16 16 15 15 15 13 12 12 13 13 12 12 12 12 12 12 12 13 14 14 15 16 17 18 19 20 20 19 19 19 18 19 20 20 19 18 18 12 5 12 22 20 20 25 26 25 27 27 27 29 30 30 31 30 30 30 31 32 34 34 34 34 35 35 35 35 34 33 32 32 31 32 33 34 34 35 35 35 35
21 20 19 19 19 18 17 17 17 16 15 14 13 14 14 14 13 12 12 12 13 13 13 14 15 15 15 16 18 19 19 20 19 19 20 20 20 20 21 21 22 21 20 16 10 13 25 26 21 24 28 27 28 30 30 31 32 32 32 32 31 31 31 32 34 35 35 35 35 36 36 36 36 35 34 33 32 32 33 34 34 35 35 36 36
20 19 19 19 19 19 19 19 18 17 16 15 14 13 13 13 13 12 11 12 13 14 14 14 14 14 15 16 17 18 18 18 18 18 19 21 21 22 23 23 24 25 23 22 19 14 20 27 24 24 29 28 29 32 32 32 34 34 34 33 32 32 31 32 33 35 37 36 36 37 37 37 37 37 36 35 34 34 34 35 35 35 35 36 36
20 19 20 21 21 20 20 20 19 18 17 15 14 14 14 13 12 12 12 13 14 14 14 14 14 13 14 16 16 16 16 16 17 17 18 20 21 22 23 24 25 26 25 25 24 19 19 26 27 25 28 30 31 33 34 34 35 35 34 34 33 33 32 32 32 34 36 36 37 38 38 38 38 38 37 37 36 36 36 36 35 35 36 36 36
21 20 21 22 22 22 22 21 19 18 16 15 15 15 14 13 13 13 13 14 15 15 15 14 14 13 14 15 15 14 14 15 16 16 17 19 21 22 23 24 25 27 27 26 26 24 22 25 28 27 27 29 32 34 34 34 35 34 34 34 34 33 34 33 32 34 36 35 36 38 39 39 38 38 37 37 38 37 36 36 36 35 36 36 36
23 22 22 23 23 23 23 21 19 17 16 15 15 15 14 13 14 14 15 16 16 16 16 14 14 14 14 15 15 14 15 15 16 17 18 19 20 21 22 23 25 26 27 27 26 25 24 24 28 30 29 28 31 34 34 33 33 33 34 35 35 33 34 34 33 34 37 37 37 38 40 40 39 38 38 38 38 38 37 37 36 36 35 36 36
24 24 23 24 24 25 23 21 19 18 17 17 17 16 15 14 15 16 16 16 16 16 15 15 14 14 15 16 16 16 16 17 17 18 19 19 19 20 21 22 23 25 26 27 26 24 23 23 26 28 30 30 28 29 32 31 28 28 29 34 36 34 32 34 36 36 38 39 38 38 39 40 40 39 39 39 39 39 39 37 37 37 36 35 36
25 25 25 25 25 25 23 21 20 19 19 18 18 18 16 16 17 17 17 16 16 16 16 16 15 15 16 16 17 17 17 17 18 19 19 20 19 20 21 21 22 23 24 26 25 22 19 19 21 22 25 27 23 23 30 32 29 28 28 27 30 33 33 33 35 37 39 40 39 38 38 39 40 39 39 39 38 38 37 37 36 37 37 36 36
26 26 26 26 25 25 23 22 21 20 19 19 20 20 19 18 18 18 18 17 17 17 17 17 16 15 16 17 18 17 17 16 17 18 19 19 19 19 20 20 21 22 24 25 23 20 17 16 18 19 19 20 19 19 24 25 23 26 29 25 24 32 36 35 35 36 38 40 40 39 38 37 38 39 39 39 39 37 36 36 35 35 37 37 36
27 26 27 26 25 25 23 22 20 19 19 19 19 19 19 18 18 18 18 18 19 19 18 17 16 16 17 17 17 15 15 15 16 17 18 18 18 19 19 19 20 22 23 23 21 19 17 16 16 17 17 17 18 18 18 20 22 26 29 28 27 31 36 37 38 37 35 37 40 39 37 35 35 38 38 37 37 35 33 34 34 33 35 36 36
28 27 27 26 25 25 23 21 20 20 20 20 19 18 18 18 18 19 20 21 20 19 19 18 17 17 16 16 16 14 14 15 16 18 19 18 18 18 18 18 19 22 22 21 20 19 17 16 16 16 16 17 19 20 22 25 30 30 28 26 27 30 32 31 34 36 34 34 37 39 38 34 31 34 35 33 33 32 30 31 32 33 34 34 35
30 28 28 27 26 25 23 21 21 20 20 20 19 18 18 18 18 20 21 23 22 21 20 19 18 17 16 16 16 16 16 16 17 18 19 18 18 17 18 18 19 21 21 20 21 21 18 16 16 15 16 18 20 25 29 31 31 29 26 26 25 25 27 24 25 30 34 35 36 39 42 39 32 33 37 36 34 35 35 36 35 34 34 34 34
31 30 28 27 27 25 24 23 22 22 21 20 19 19 19 19 20 21 23 24 25 25 23 20 18 16 16 16 17 18 17 17 18 19 19 18 18 17 18 20 20 21 21 21 21 21 18 17 16 14 17 20 21 24 28 28 27 27 27 28 26 24 26 26 25 31 39 41 37 37 43 44 36 34 38 39 37 36 36 38 37 34 35 36 34
32 31 29 29 28 27 25 25 24 23 22 21 20 20 20 21 22 23 25 25 26 26 24 21 18 16 16 16 17 18 18 17 18 19 18 18 18 19 20 21 22 23 22 20 19 19 19 20 18 18 21 24 23 24 27 28 28 28 28 28 27 25 28 31 34 40 46 45 39 37 41 43 36 32 37 39 36 34 35 37 36 33 33 35 35
31 30 29 29 29 28 26 25 24 23 22 21 21 20 21 23 23 24 25 24 25 26 23 19 18 18 16 16 17 17 17 18 18 18 17 17 19 20 22 23 24 24 21 18 15 15 17 18 20 22 24 25 24 25 28 30 30 31 30 29 29 28 30 35 41 45 47 45 41 34 33 38 37 32 36 38 34 33 36 38 37 34 32 34 35
28 29 30 30 30 29 27 25 25 25 24 22 22 22 23 23 22 23 23 22 23 24 21 19 20 19 17 16 16 17 17 17 17 16 17 18 19 21 22 22 22 21 18 15 14 14 15 16 18 21 22 24 25 26 29 32 34 34 34 33 33 31 32 36 39 42 43 44 40 30 26 35 38 31 35 38 33 31 33 34 37 37 35 35 35
26 28 29 31 31 29 27 26 26 26 26 24 24 23 21 19 19 22 22 21 21 22 20 19 20 19 17 15 15 15 15 15 16 17 18 19 19 19 18 18 19 18 17 17 17 18 18 18 19 21 23 26 29 31 31 32 33 34 34 34 33 30 31 31 30 34 37 37 37 31 27 34 37 32 34 37 31 29 30 30 32 33 32 33 35
26 28 29 30 30 29 28 27 27 27 27 25 21 18 16 16 19 21 21 20 20 20 19 18 18 17 16 14 13 14 15 15 16 17 17 17 16 15 15 16 17 18 18 19 20 21 22 22 24 26 28 29 29 28 28 27 28 29 29 30 30 28 26 22 19 28 35 34 36 36 30 32 37 35 34 34 31 30 31 30 30 30 29 30 32
27 26 25 24 25 26 26 26 26 25 24 21 18 17 16 16 19 21 19 18 19 18 18 18 18 17 14 12 12 13 14 15 16 16 15 14 14 14 14 14 15 16 17 17 21 24 25 26 27 27 26 26 24 25 25 24 25 26 25 26 28 27 24 20 19 29 36 35 36 34 27 29 36 35 30 27 26 30 33 33 32 32 31 31 31
21 19 18 18 20 22 23 23 23 22 21 20 19 20 19 17 18 18 16 16 17 17 18 18 17 16 13 12 12 13 13 14 15 14 14 13 13 14 13 12 14 16 17 18 22 26 27 27 27 26 24 25 25 24 24 24 25 25 24 25 27 27 25 25 26 26 23 26 33 32 25 28 32 30 25 16 12 19 28 33 35 34 32 32 32
Wind_Direction
246 247 250 255 260 264 267 269 274 278 277 283 295 304 304 296 287 286 293 305 316 327 334 334 331 332 331 324 322 318 308 299 296 296 298 301 304 305 302 299 301 301 291 278 259 246 242 240 238 236 239 241 238 237 237 235 235 234 233 231 231 231 231 231 232 232 232 231 230 227 226 226 227 230 231 229 228 231 233 234 237 241 244 247 250
245 245 247 251 256 260 263 267 271 275 276 279 289 300 304 298 295 294 300 312 319 323 327 327 326 332 331 323 320 319 320 315 306 299 293 291 295 302 309 308 309 309 300 283 264 247 241 240 237 235 236 237 238 240 239 238 238 238 237 235 234 234 233 233 233 234 236 236 235 233 231 230 230 231 233 234 233 233 235 238 240 242 247 251 252
244 245 247 251 255 259 262 267 270 271 273 276 285 297 302 301 300 300 303 311 318 320 323 324 325 330 328 323 322 325 331 331 328 318 304 293 288 292 301 304 309 316 314 294 274 261 251 247 243 238 238 237 237 238 240 242 243 241 241 239 237 236 236 236 235 235 237 239 239 238 236 234 233 232 233 235 237 238 238 240 242 243 247 251 254
247 246 248 252 257 263 266 268 271 271 271 274 285 298 305 305 302 301 303 308 314 317 320 323 328 331 329 327 324 327 331 329 331 330 319 307 295 297 304 306 306 310 316 303 282 271 263 256 250 245 243 243 240 239 239 243 247 247 245 243 240 238 237 237 237 237 237 238 240 241 241 239 237 235 235 236 238 241 242 242 243 244 246 249 251
251 251 252 256 260 264 266 268 272 274 272 277 288 299 305 306 303 302 301 304 309 315 323 330 336 338 338 335 327 324 321 317 319 319 316 312 304 302 305 308 305 304 309 308 292 278 269 262 255 249 246 244 244 244 242 241 244 248 248 246 243 241 239 239 238 239 239 239 239 241 243 243 242 240 239 239 240 242 243 244 245 246 247 249 251
255 257 258 260 261 263 267 269 273 275 276 280 286 294 299 303 306 304 302 304 312 324 336 341 341 340 342 337 331 327 319 315 316 317 317 314 310 309 311 312 309 305 305 304 301 291 281 272 262 255 249 246 244 244 246 244 242 245 250 250 248 244 241 241 241 241 241 241 240 241 242 243 243 243 243 242 243 244 244 244 246 248 249 250 252
255 255 258 259 261 263 268 272 276 278 277 278 280 285 292 302 308 308 309 311 319 334 345 345 340 339 341 341 342 338 331 328 327 327 325 320 317 317 319 320 317 311 306 301 297 295 295 287 275 263 253 249 247 245 246 248 246 246 248 251 252 250 246 244 243 242 243 243 243 242 242 243 243 243 244 244 245 246 246 246 246 248 250 251 253
248 249 253 255 257 261 267 276 278 277 275 274 276 282 289 298 307 312 314 314 320 330 340 341 338 338 340 343 346 343 339 336 336 336 333 331 331 331 333 335 332 321 308 304 296 286 288 290 287 277 263 257 254 252 250 250 252 252 250 251 253 254 253 249 245 244 244 244 245 244 244 244 244 245 245 245 246 247 247 248 248 248 250 252 254
243 247 251 253 257 258 259 269 271 269 273 277 280 283 282 286 299 310 308 309 315 322 328 333 335 336 335 341 344 341 338 339 346 355 357 1 1 1 6 9 7 355 321 311 303 287 279 277 280 283 277 270 266 263 258 253 254 255 254 252 252 253 254 252 249 247 246 245 246 245 245 245 245 246 246 247 247 247 249 249 250 250 251 252 254
245 247 252 255 259 256 250 259 263 262 273 280 283 281 275 277 296 308 305 306 311 317 319 321 328 331 330 336 343 344 344 351 7 15 20 32 34 30 31 34 38 39 32 10 346 317 297 287 282 279 278 277 275 273 266 260 257 256 255 252 251 251 251 250 249 248 247 246 246 246 247 246 245 246 247 248 249 249 250 251 251 252 252 252 252
251 253 257 254 251 249 248 254 255 258 271 278 280 280 277 278 292 302 305 305 307 312 313 315 322 326 328 333 344 354 3 24 33 36 50 54 46 40 37 39 44 48 52 51 41 22 352 325 307 294 287 283 280 276 270 264 261 258 255 252 250 250 249 249 249 249 249 248 248 248 249 249 248 248 248 248 249 250 251 251 252 253 253 253 253
253 256 255 245 237 237 235 234 244 262 273 278 280 280 277 277 283 292 300 301 302 310 318 324 322 320 326 332 345 6 38 59 50 53 66 59 47 46 44 44 45 47 50 51 50 45 34 11 340 316 303 295 290 284 274 267 263 262 261 257 252 250 249 250 252 252 252 253 251 250 251 251 250 250 251 251 250 250 251 252 253 254 254 255 255
249 242 238 229 218 211 207 218 258 274 275 279 281 276 273 278 283 286 291 294 299 312 328 333 320 314 327 332 350 41 94 70 51 59 67 56 49 48 48 52 52 48 46 46 47 47 43 35 25 8 340 317 302 291 280 273 268 265 266 263 257 253 253 253 254 252 252 253 253 253 253 253 252 251 251 251 252 252 252 252 253 254 255 256 256
236 223 214 203 194 191 199 234 258 264 268 275 280 276 274 278 278 278 283 291 300 313 329 331 304 305 324 327 353 58 103 66 46 60 70 58 48 44 46 52 55 50 45 42 40 37 31 24 21 18 12 1 341 318 296 286 283 279 274 266 258 255 254 254 253 252 252 252 252 253 253 254 254 253 252 251 251 252 253 253 253 254 255 256 256
209 202 193 187 188 197 211 227 243 257 262 262 265 268 264 258 263 273 286 299 305 320 343 341 293 307 321 322 359 38 72 33 28 51 71 59 45 41 41 46 52 49 44 42 37 32 26 15 8 4 359 351 337 328 317 303 303 304 298 285 271 262 257 255 254 253 253 253 252 252 253 254 256 256 256 254 252 252 252 252 253 254 255 256 256
189 188 187 189 197 206 211 218 235 251 252 246 242 242 242 247 262 274 284 294 303 329 6 2 326 321 329 62 60 31 30 345 347 26 62 56 41 38 38 43 49 47 44 43 39 33 28 19 11 6 355 338 328 324 318 308 305 301 294 290 289 285 280 275 267 259 255 255 253 252 254 255 256 256 258 257 255 254 253 251 252 254 254 255 256
185 187 190 196 202 204 207 216 227 235 239 237 232 232 235 242 261 276 275 273 297 329 353 346 360 112 213 220 112 107 169 309 316 350 27 34 34 33 36 42 46 45 42 42 41 39 35 28 22 18 13 360 350 345 335 321 310 303 296 294 294 294 293 290 284 273 264 259 256 255 256 257 257 258 259 258 257 258 256 253 252 253 253 255 255
189 192 196 197 198 198 201 209 220 226 229 229 225 230 248 270 286 313 317 266 319 330 321 320 319 149 187 208 212 240 214 258 290 327 346 3 21 23 33 40 44 44 40 39 40 41 40 37 33 28 25 20 13 10 6 356 339 325 312 305 300 297 294 290 286 282 276 269 264 261 259 258 260 262 262 260 259 258 258 256 255 254 253 254 255
194 196 196 195 193 192 196 204 213 221 229 235 234 236 250 267 276 302 7 128 60 332 310 316 150 144 152 173 197 217 200 171 147 158 335 325 346 9 28 37 41 40 37 36 36 38 41 43 44 41 36 29 21 15 9 2 353 347 336 319 310 305 301 296 291 286 280 278 275 271 267 265 265 264 262 261 261 261 259 257 257 256 254 253 254
196 196 193 191 190 189 195 203 209 220 229 231 227 219 219 223 230 237 177 140 109 61 348 4 123 131 135 147 163 171 162 149 135 130 132 270 321 347 2 9 29 37 33 32 31 34 40 44 46 44 42 38 30 22 14 5 354 346 343 338 331 321 310 303 298 292 283 279 278 277 275 272 270 266 262 261 263 264 263 260 258 257 255 254 254
193 193 190 189 191 191 195 202 210 219 220 215 210 203 202 201 197 188 160 141 134 99 78 110 129 135 143 148 151 153 157 164 151 135 147 204 290 309 326 341 0 14 21 26 24 28 37 42 42 39 38 37 34 32 27 21 13 0 351 342 333 322 311 304 300 294 286 280 277 277 277 275 271 267 263 262 262 263 263 262 260 258 256 256 255
186 189 191 192 193 194 196 202 211 213 209 206 201 194 190 184 172 160 145 136 145 132 118 148 153 155 162 165 161 160 168 188 198 180 185 234 259 276 288 306 322 336 359 11 12 16 21 30 34 31 31 31 30 30 29 27 24 18 9 357 342 331 320 311 304 298 291 285 281 278 277 276 272 267 264 264 263 263 262 262 262 260 258 257 255
186 191 194 193 193 194 197 203 206 200 197 195 187 178 173 167 162 155 150 149 163 160 171 188 187 183 179 180 180 179 186 204 207 197 195 214 235 275 277 283 288 297 335 350 354 1 2 10 19 19 21 22 22 20 18 20 20 17 15 11 1 349 337 324 313 305 297 292 287 285 282 279 275 270 267 266 266 264 263 263 262 260 258 257 256
191 193 194 193 193 193 196 202 200 194 192 190 182 174 169 169 171 173 173 189 215 217 216 215 213 210 205 204 208 211 211 214 213 211 212 214 214 237 268 293 293 289 319 334 337 340 341 347 359 3 7 11 10 8 9 10 11 10 7 7 5 359 351 340 327 315 305 297 292 289 286 284 282 277 274 273 270 266 263 261 260 260 259 257 255
192 192 193 193 193 195 197 204 205 199 198 197 191 187 186 185 186 193 209 235 246 246 248 246 239 234 231 232 238 243 238 230 224 224 226 219 212 222 246 264 270 292 311 319 324 330 328 326 338 347 354 358 358 357 360 2 3 4 1 358 357 357 355 350 341 328 317 306 298 292 287 284 284 283 280 278 275 272 269 265 262 261 260 258 256
193 192 194 195 197 201 205 211 211 204 203 206 203 200 201 197 199 219 247 262 260 257 260 259 259 256 249 249 251 253 251 244 238 236 235 230 228 236 236 229 243 273 294 300 304 312 312 317 326 333 341 348 348 347 349 352 355 356 355 352 351 352 352 349 346 340 330 319 309 300 292 286 282 281 281 280 277 275 274 273 270 264 259 257 257
197 197 200 200 201 204 208 214 215 209 206 210 208 205 211 214 227 256 275 283 277 269 269 264 263 263 261 262 260 258 257 253 251 251 248 250 257 261 250 230 252 262 271 284 285 285 291 307 319 324 331 339 341 340 340 343 347 349 348 347 347 349 349 345 343 341 336 329 320 311 302 294 286 281 279 277 276 275 273 274 275 270 263 257 256
202 203 205 204 204 206 210 216 221 218 214 217 219 219 226 235 249 267 278 288 290 286 284 277 273 272 270 268 265 264 265 260 260 262 260 261 267 269 259 237 235 266 267 267 269 284 295 298 308 317 323 330 334 334 334 335 340 343 342 342 342 344 345 342 339 338 336 332 327 319 311 303 294 286 281 277 274 273 272 271 272 272 269 263 257
204 207 209 208 207 210 216 222 226 225 221 226 234 238 244 249 257 265 271 278 283 284 284 281 282 282 277 274 269 271 271 264 261 261 259 262 264 267 265 253 242 234 259 285 246 250 286 294 295 305 313 320 325 327 330 334 336 337 337 336 337 338 339 338 337 336 334 331 328 322 316 309 302 294 286 280 275 273 271 269 269 269 269 267 262
206 209 210 209 209 213 221 226 228 229 228 229 234 243 250 254 259 262 265 271 275 274 273 274 280 284 283 281 277 276 273 266 262 258 254 260 264 262 265 262 255 245 242 275 274 248 258 282 291 300 308 313 317 320 325 331 334 332 331 330 331 333 334 334 334 332 331 329 327 323 318 312 306 300 292 285 279 274 272 269 267 267 266 266 263
208 210 210 209 213 219 226 229 229 232 233 231 233 241 248 252 257 260 262 268 271 269 268 272 282 286 285 283 282 281 279 272 266 257 252 261 266 259 257 258 259 259 254 251 275 270 261 270 288 298 305 308 311 313 318 325 330 329 326 325 327 330 330 330 330 329 328 326 324 321 317 313 308 303 297 290 283 277 273 271 268 266 264 263 262
211 212 213 215 219 222 225 227 228 233 234 232 236 243 248 251 255 260 263 266 269 270 272 276 283 286 284 284 285 286 283 277 270 261 256 263 265 257 253 255 258 263 260 247 243 277 277 277 286 296 302 305 306 308 313 318 323 325 323 321 322 324 326 327 328 327 324 322 320 318 315 312 308 304 299 293 287 281 275 272 270 267 264 261 259
211 213 217 219 220 219 220 225 230 236 236 236 243 247 247 249 253 260 265 268 273 276 277 279 280 282 283 284 285 286 285 280 275 267 262 264 264 257 252 252 257 261 260 250 241 269 282 284 286 293 299 301 302 305 309 313 317 320 319 318 319 319 320 322 323 323 321 319 316 315 313 309 307 304 300 295 289 284 279 274 271 269 265 261 257
209 213 217 217 216 217 221 227 233 237 239 241 245 244 244 250 255 260 265 272 277 277 276 277 277 279 281 282 283 284 283 280 276 271 266 265 263 258 254 253 257 263 262 255 250 257 279 285 286 291 296 296 297 301 306 308 311 314 314 315 317 316 316 317 317 319 319 318 315 312 310 307 304 302 300 296 291 286 281 276 271 269 266 262 257
207 210 214 214 216 221 226 231 234 237 241 243 242 243 247 254 257 262 269 275 277 275 274 276 277 278 279 278 280 282 281 278 276 273 270 268 265 261 259 259 260 265 266 261 257 257 270 283 286 288 291 293 294 297 301 303 306 308 309 311 314 313 314 314 313 314 316 316 314 312 309 305 302 300 298 295 292 288 283 276 271 268 266 263 258
206 208 212 214 219 226 230 232 235 239 242 242 242 248 253 256 260 265 271 273 273 273 275 278 279 280 279 279 282 285 281 277 277 276 273 271 268 264 263 263 262 266 269 267 263 260 264 277 285 285 287 290 292 295 298 300 303 305 306 307 309 310 312 312 312 313 315 314 312 311 308 304 301 299 297 295 293 289 285 278 271 266 264 261 257
207 208 212 217 223 229 231 233 237 239 241 243 246 251 253 257 263 267 268 269 271 272 274 278 281 282 281 281 284 285 282 279 280 281 279 275 273 269 267 268 268 270 271 270 267 264 261 268 280 285 287 288 290 294 296 297 300 303 304 304 305 308 310 311 312 312 313 312 310 309 308 304 301 298 297 295 293 290 286 281 273 266 263 260 256
209 211 215 220 225 228 230 234 238 240 242 243 246 249 252 257 263 265 266 267 268 269 271 276 279 280 278 279 282 282 279 280 282 283 283 281 279 276 275 277 277 276 274 273 272 267 262 265 273 281 286 287 287 292 296 296 296 298 301 302 304 307 308 309 310 311 313 311 309 307 306 303 300 297 296 295 293 290 285 281 275 266 260 258 255
211 214 218 222 225 227 230 234 238 242 244 244 244 246 250 255 260 263 263 264 265 268 271 273 275 276 277 277 279 280 280 282 284 285 285 284 284 283 283 284 283 278 275 276 275 268 263 265 269 275 282 286 286 287 293 296 295 293 294 295 300 304 305 305 307 309 311 311 308 305 304 302 298 295 294 294 293 291 287 282 276 266 258 254 252
215 217 220 223 226 228 231 236 240 242 243 243 243 244 248 253 259 261 261 261 264 267 269 271 274 277 279 279 279 281 283 286 288 289 287 285 284 285 285 286 284 279 276 276 274 269 266 266 269 273 278 284 285 284 290 294 291 290 294 294 293 298 302 303 304 307 309 310 308 305 302 300 297 294 292 292 292 291 288 285 279 266 256 251 249
220 220 222 225 227 229 232 237 240 240 239 239 240 242 246 252 257 261 262 262 265 266 267 270 275 278 279 281 281 281 283 286 288 289 287 283 281 282 285 287 285 281 278 275 271 269 268 266 266 271 275 279 283 283 285 286 281 284 293 295 291 294 299 301 302 305 308 308 307 303 299 298 296 292 289 287 287 286 284 283 280 271 258 250 246
227 223 224 227 228 231 235 237 236 234 234 237 239 242 248 254 260 264 265 266 266 267 267 268 273 278 279 281 281 279 280 284 287 288 286 281 276 277 281 283 282 280 276 272 270 269 267 266 265 268 273 274 278 280 280 282 284 285 290 292 291 296 301 302 301 304 308 308 306 301 297 296 292 288 285 281 278 278 276 276 276 273 266 255 247
230 227 226 227 229 232 235 236 234 233 234 239 243 248 253 256 262 266 267 268 266 264 264 265 270 275 276 276 275 274 277 282 285 287 286 281 275 272 275 277 278 278 273 267 267 268 265 264 265 266 270 272 277 282 283 284 286 287 289 291 291 295 300 301 300 303 306 307 304 298 295 294 289 282 280 276 273 272 271 270 271 270 268 263 254
230 228 227 228 230 234 237 237 236 236 238 243 248 252 255 257 261 265 268 268 266 263 262 263 266 270 271 270 269 270 276 283 286 286 285 282 279 275 275 276 276 277 276 271 267 266 264 263 266 269 272 274 278 283 285 287 288 289 292 293 291 292 295 295 294 295 300 304 304 296 292 292 288 279 275 273 271 268 268 269 270 266 263 262 258
232 230 230 232 235 238 240 239 239 240 242 246 250 253 256 258 261 263 265 266 265 262 263 265 267 268 269 267 266 270 277 283 285 285 285 285 285 283 282 281 280 280 282 282 277 272 268 267 270 274 277 278 281 284 288 292 293 294 293 292 291 291 291 291 289 289 295 301 299 292 288 288 285 277 272 271 269 264 263 266 267 263 259 257 256
232 234 235 237 239 240 241 241 242 244 246 250 255 258 259 262 265 265 265 265 262 259 262 270 274 272 270 268 268 274 280 282 282 284 287 287 287 286 285 284 285 286 287 289 290 288 284 280 278 278 280 283 285 288 292 296 296 295 293 291 292 291 287 288 289 290 294 297 293 285 282 283 282 274 270 270 267 261 260 262 261 257 253 253 254
233 240 242 242 243 241 242 243 243 246 250 253 257 259 262 266 272 271 268 265 261 257 260 270 274 273 271 270 272 276 278 278 280 284 288 288 286 286 287 286 287 289 289 291 296 298 295 290 286 284 286 290 293 294 296 297 297 296 295 293 292 290 287 288 290 290 292 294 291 280 273 281 281 271 266 269 265 260 259 259 259 257 250 247 249
236 244 246 245 245 243 242 244 245 248 252 254 257 261 265 273 279 278 271 264 260 258 261 268 270 271 273 273 272 275 275 276 280 285 288 289 288 288 290 289 289 290 292 296 300 302 302 301 298 296 296 295 297 298 297 297 298 299 300 298 295 291 290 290 291 289 289 292 291 280 271 279 280 270 264 267 263 258 257 254 254 256 250 243 243
237 245 248 247 247 244 243 244 246 248 252 254 256 261 268 279 287 284 274 263 259 260 264 269 270 272 274 272 270 272 275 279 285 288 290 290 290 292 293 294 294 296 299 302 304 306 308 307 304 303 303 302 302 301 300 302 304 304 302 296 294 294 295 292 291 292 291 291 290 285 275 273 276 270 264 263 260 256 256 253 250 249 247 243 241
239 244 249 251 250 247 245 245 245 247 250 250 249 253 261 275 286 285 273 261 258 260 264 268 271 273 273 270 270 274 279 285 288 289 288 287 290 294 297 299 300 300 304 308 308 309 311 312 311 311 311 311 309 307 308 310 312 310 301 292 293 297 294 289 290 295 293 288 289 289 277 269 272 268 260 260 260 255 253 254 252 246 241 240 240
244 245 249 253 253 252 250 246 242 241 241 241 244 252 261 272 280 278 268 259 258 261 265 270 273 273 272 271 274 277 283 288 288 285 284 286 291 297 301 304 303 302 305 308 309 312 315 317 318 318 316 314 312 312 314 317 319 318 310 300 300 299 293 289 291 294 294 290 294 297 286 274 272 264 254 252 257 257 255 252 249 246 239 234 236
Height
851 850 851 851 851 851 851 851 851 852 851 851 851 851 850 849 849 849 849 849 848 848 847 847 846 846 845 844 844 843 842 842 842 842 842 842 842 842 842 843 844 844 844 845 846 847 847 848 850 851 852 852 853 854 855 855 856 857 857 858 858 859 860 860 861 862 862 863 863 864 864 864 864 864 865 866 867 868 869 869 870 871 872 873 873
849 850 850 850 850 850 850 851 851 851 851 851 851 851 850 850 849 849 849 848 848 848 847 846 846 845 844 844 843 842 842 842 841 841 841 842 842 842 843 843 843 844 844 844 844 844 844 845 846 847 848 850 851 852 853 854 855 856 857 857 857 858 859 859 860 861 861 862 863 863 863 863 863 864 864 865 866 867 868 868 869 870 871 872 872
848 849 849 849 849 849 849 850 850 851 851 851 851 851 850 850 850 849 849 848 848 847 846 846 845 845 844 843 843 842 842 841 841 840 841 841 841 842 842 842 842 843 843 842 842 842 842 843 844 845 846 847 849 850 852 853 854 855 856 856 857 857 858 858 859 859 860 861 862 862 862 863 863 863 863 864 865 866 867 867 868 869 870 871 871
847 847 847 848 848 848 849 849 849 850 850 850 850 850 850 849 849 848 848 847 847 847 846 845 845 844 844 843 842 842 841 841 840 840 840 840 840 841 841 842 842 842 842 841 840 839 840 842 843 844 845 847 848 849 850 851 852 854 855 856 856 856 856 857 858 858 859 859 860 861 861 862 862 862 863 863 864 865 865 866 867 868 869 869 870
846 847 847 847 848 848 848 848 849 849 849 849 849 849 848 848 848 848 848 847 847 846 846 846 845 844 844 843 842 842 841 840 840 840 840 840 840 840 840 841 841 841 841 840 840 839 839 840 841 842 843 845 847 847 848 848 849 852 854 855 855 855 855 856 856 857 857 858 858 859 860 860 861 861 862 862 863 864 864 865 866 867 867 868 869
845 846 846 847 847 847 847 847 848 848 848 848 848 848 847 847 847 847 847 847 846 846 845 845 844 844 843 843 842 842 841 840 840 839 839 839 839 839 840 840 840 840 840 840 839 839 839 839 840 841 842 843 844 845 845 846 847 849 851 854 854 854 854 854 855 855 856 856 857 857 858 859 859 860 860 861 861 862 863 864 865 865 866 867 868
844 845 845 845 846 846 846 847 847 847 847 847 847 847 847 847 846 846 846 846 846 845 845 844 843 843 842 842 842 841 840 840 839 839 839 838 838 838 838 839 839 839 838 839 839 838 838 838 838 839 840 841 842 842 842 843 845 845 847 850 853 854 854 854 853 854 854 855 855 856 856 857 857 858 859 859 860 861 861 862 863 864 865 865 866
842 843 843 843 844 844 845 845 846 846 846 846 846 846 846 846 846 845 845 845 844 844 844 843 842 842 841 841 841 840 840 839 839 838 838 838 837 837 837 837 837 837 837 837 837 837 837 837 837 837 838 839 840 840 840 841 842 843 844 846 850 851 852 853 852 852 852 853 853 854 854 855 855 856 857 857 858 859 860 861 861 862 863 864 865
840 841 842 842 843 843 844 844 845 844 844 844 844 844 845 845 845 845 844 843 843 843 842 842 842 841 840 840 840 839 839 839 838 838 837 837 837 836 836 836 836 835 835 835 835 835 835 835 835 836 836 837 837 838 839 840 841 841 842 843 846 847 849 850 851 851 851 850 851 851 852 853 853 854 855 855 856 857 858 859 859 860 861 862 863
839 840 841 841 842 843 843 843 843 843 843 842 842 843 844 844 844 844 844 843 842 842 841 841 841 841 840 839 839 838 838 838 838 837 837 836 836 836 835 835 834 834 833 833 833 833 833 833 833 833 834 834 835 836 837 837 838 838 838 840 841 842 844 846 847 848 848 848 848 849 849 850 851 852 852 853 854 855 856 856 857 858 859 860 861
838 839 840 840 841 842 843 842 842 842 842 842 842 842 843 843 843 843 843 842 841 841 841 840 840 840 839 838 838 838 838 838 838 837 836 836 836 836 835 834 834 833 833 832 832 832 832 832 831 831 832 832 833 834 835 835 834 834 833 834 836 839 842 843 843 844 845 845 845 846 847 848 848 849 850 851 852 852 853 854 855 856 856 857 858
837 838 839 839 840 841 841 841 841 841 841 841 841 842 842 842 843 842 842 842 841 841 841 840 840 840 839 838 837 837 837 838 837 837 836 836 836 836 835 834 834 833 833 832 832 831 831 830 829 829 829 830 831 832 832 832 831 831 830 831 833 836 839 840 841 842 842 843 843 844 845 846 846 847 847 848 849 850 851 852 852 853 854 855 855
836 837 838 838 839 840 840 840 840 841 841 841 841 841 841 842 842 842 841 841 840 840 840 840 840 839 838 837 836 837 837 837 837 836 836 836 836 836 835 834 833 833 832 832 831 831 830 829 829 828 828 828 829 830 830 830 829 829 829 830 832 834 835 836 838 839 839 840 841 842 843 843 843 843 844 845 846 847 848 849 850 850 851 852 853
834 835 836 837 838 839 839 839 839 840 840 840 841 841 841 841 841 841 841 841 840 839 840 839 839 839 839 838 837 836 837 837 837 836 836 836 836 835 835 834 833 832 832 831 830 830 829 829 828 828 828 827 828 828 828 828 828 828 829 829 830 831 832 832 833 835 836 837 838 838 839 840 840 840 841 842 843 844 845 846 847 848 848 849 850
833 834 835 836 837 838 838 838 838 838 839 839 840 840 840 841 841 841 840 840 840 839 839 839 839 839 839 840 839 839 838 837 836 836 836 835 835 835 834 834 833 833 832 831 830 829 829 828 827 827 827 827 827 827 827 827 827 827 828 829 829 828 829 829 830 831 832 833 834 835 835 836 837 837 838 839 840 840 841 842 843 844 845 846 847
832 833 834 835 835 836 836 837 837 838 838 838 839 839 840 840 840 840 839 840 839 839 838 838 838 839 839 840 841 842 842 839 837 836 836 835 834 834 834 833 833 832 831 831 830 829 828 827 827 826 826 825 825 826 826 826 826 827 828 828 827 827 827 827 827 829 829 830 831 832 832 833 833 834 835 836 836 837 838 839 840 841 842 843 844
831 832 833 834 834 835 835 836 836 837 837 837 838 838 838 839 839 838 838 839 839 838 838 838 838 838 838 839 840 842 842 840 838 836 835 835 834 834 834 833 833 832 831 830 830 829 828 827 827 826 825 825 825 825 825 825 825 826 826 826 825 825 825 825 825 826 826 827 828 829 829 829 830 830 831 832 833 834 835 835 836 837 838 839 840
830 831 832 832 833 833 834 835 836 836 836 837 837 837 837 837 837 837 837 838 838 838 838 838 837 837 837 838 838 840 839 839 839 838 836 835 834 834 834 833 833 832 831 830 830 829 828 827 827 826 825 825 824 824 824 824 824 824 825 824 823 823 822 823 823 823 823 824 825 826 827 827 827 827 827 828 829 830 831 832 833 834 834 835 836
829 830 831 832 832 833 834 834 835 835 835 836 836 836 837 836 837 836 836 836 837 837 837 836 836 836 837 837 837 837 838 838 839 839 838 836 834 833 833 833 833 832 831 831 830 829 828 827 827 826 825 825 824 824 823 823 823 823 823 823 822 821 821 820 820 820 821 821 822 823 823 824 824 824 824 824 825 826 827 828 829 830 831 832 833
828 829 830 831 832 832 833 833 834 834 835 835 835 835 836 836 836 836 835 835 835 836 836 836 836 836 836 837 837 837 837 838 838 838 839 839 836 833 833 832 832 832 831 831 830 829 828 827 827 826 825 824 824 823 822 822 821 820 820 820 820 820 819 819 818 818 818 819 819 819 820 820 820 820 820 821 821 822 823 824 825 826 827 828 829
828 829 830 831 831 832 832 833 833 834 834 834 834 834 834 834 834 834 834 834 834 834 835 835 835 835 836 836 836 837 837 838 838 838 838 839 838 835 833 832 832 832 832 831 830 829 828 827 826 826 825 824 823 823 822 821 821 820 819 818 818 818 818 817 817 816 816 816 816 816 817 817 817 817 817 817 818 818 819 820 821 822 823 824 825
827 828 829 830 831 832 832 832 833 833 833 833 833 833 833 833 833 833 833 833 834 834 834 834 834 835 835 836 836 836 837 837 837 838 838 838 838 836 835 833 832 831 831 831 830 830 829 828 827 826 825 824 823 822 821 821 820 819 819 818 818 817 817 816 815 815 814 814 814 813 813 813 813 813 813 814 814 815 816 816 817 818 819 820 821
826 828 829 830 830 831 831 832 832 832 832 832 832 832 832 832 832 832 833 833 833 833 833 834 834 834 835 835 835 835 836 836 836 836 837 837 837 836 834 833 832 831 830 830 830 829 829 828 827 826 825 824 823 822 821 820 819 819 818 817 817 816 815 815 814 813 813 812 812 811 811 810 809 810 810 810 811 811 812 813 813 814 815 816 816
826 827 828 829 829 830 831 831 831 831 832 831 831 831 831 831 831 831 832 832 833 833 833 833 833 834 834 834 835 835 834 834 834 835 835 835 836 835 834 833 831 830 829 829 828 828 828 828 827 826 825 824 823 822 821 820 819 817 816 816 815 814 813 812 811 811 810 810 809 809 808 807 806 806 806 807 807 808 808 809 809 810 811 812 813
824 825 826 827 828 829 829 829 830 830 831 831 831 831 831 830 831 831 831 832 832 832 833 833 833 833 833 833 833 833 833 833 833 833 833 833 834 834 833 833 832 830 828 828 827 827 827 826 826 825 824 823 822 821 820 819 818 816 815 814 813 812 811 810 809 808 807 806 806 805 805 804 803 803 803 803 803 803 804 805 806 806 807 808 809
822 824 824 825 826 827 827 828 828 829 829 830 830 830 830 830 830 830 830 831 831 831 832 832 832 832 832 832 832 832 832 832 832 832 831 832 832 832 832 832 832 830 828 827 827 826 825 825 824 824 823 822 821 820 819 818 817 815 814 813 811 810 809 808 807 806 805 803 802 801 801 800 799 799 799 799 799 800 800 801 802 802 803 804 805
821 822 823 824 824 825 826 826 826 827 828 829 829 829 829 829 829 829 829 829 830 830 831 831 831 832 831 831 831 831 831 831 830 830 830 830 830 830 831 831 831 830 829 827 826 825 824 823 823 822 821 821 820 819 818 817 816 814 812 811 809 808 807 805 804 803 802 801 799 798 797 796 795 795 795 796 796 796 797 797 798 798 799 800 800
819 821 821 822 823 824 824 824 825 826 826 827 828 828 828 828 828 828 828 828 828 828 829 829 830 830 830 830 830 830 830 830 829 829 829 829 829 829 829 830 830 830 828 827 825 823 822 822 821 820 819 819 818 817 816 815 814 812 811 809 807 806 804 803 801 800 799 797 796 794 793 792 792 791 791 791 792 792 793 793 794 794 795 795 796
817 818 819 820 821 822 822 823 823 824 825 825 826 826 827 827 826 826 826 827 827 827 827 828 828 829 829 829 829 828 828 828 828 827 827 827 827 827 827 827 828 828 827 825 823 821 821 821 819 818 817 817 816 815 814 813 812 811 809 807 805 804 802 801 799 797 796 794 793 791 790 789 788 788 787 787 787 788 788 789 789 790 790 790 791
815 816 817 818 819 820 821 822 822 823 823 824 824 825 825 826 825 825 825 825 825 826 826 826 827 827 827 827 827 827 827 827 826 826 825 825 825 825 825 825 825 826 825 824 821 819 819 819 818 816 815 814 814 813 812 811 809 808 807 805 803 802 800 798 797 795 793 791 790 788 787 786 785 784 783 783 783 783 784 784 785 785 786 786 786
812 813 814 815 816 818 819 820 821 821 822 823 823 824 824 824 824 824 824 824 824 824 824 824 825 825 825 825 825 825 825 824 824 824 824 823 823 823 823 823 823 823 822 823 820 816 815 816 816 815 813 812 811 809 808 808 807 806 804 803 801 799 797 796 794 792 790 788 787 785 784 782 781 780 780 779 778 779 779 779 779 780 781 781 781
809 811 812 813 815 816 817 819 820 820 821 821 822 822 822 823 823 823 823 823 823 823 823 822 823 823 823 823 823 823 823 822 822 822 821 821 821 820 820 820 820 820 820 821 819 814 812 813 813 812 812 810 808 806 805 804 803 803 801 800 798 797 795 792 791 789 787 786 784 782 780 779 778 777 775 775 774 774 774 774 774 774 775 776 776
807 809 811 812 814 815 816 817 819 819 820 820 820 820 821 821 821 822 822 822 822 821 821 821 820 821 821 821 821 821 820 820 819 819 819 819 818 818 818 818 817 818 817 818 817 812 808 809 810 809 809 808 806 803 802 800 799 799 798 796 795 794 792 790 787 785 784 783 781 779 777 775 773 772 771 770 769 769 769 768 768 769 769 770 771
805 807 810 812 813 814 815 816 817 818 818 818 819 819 819 820 820 820 820 821 820 820 819 819 819 819 819 819 819 819 818 818 817 817 817 817 816 816 815 815 815 815 815 814 814 812 808 806 806 807 806 806 803 801 799 798 796 796 794 793 792 790 789 787 784 782 781 779 778 776 774 771 769 768 766 765 764 763 763 763 763 763 763 764 765
804 806 808 810 812 813 814 815 816 816 817 817 817 817 818 818 818 818 819 819 819 819 818 817 817 817 817 817 816 816 816 816 815 815 815 815 814 814 813 813 812 812 812 812 811 811 808 804 804 804 803 802 800 798 797 795 793 792 791 789 788 787 785 784 782 779 777 776 774 771 769 767 765 763 762 760 759 758 757 757 757 757 757 758 759
802 803 806 808 810 812 812 813 814 815 815 816 816 816 816 817 817 817 817 817 817 817 817 816 815 815 815 814 814 814 814 813 813 813 813 813 812 812 811 810 810 809 809 809 809 808 807 804 801 800 800 799 797 795 794 792 790 789 788 786 784 783 781 780 778 776 773 772 770 767 765 763 761 759 757 755 754 753 752 751 751 751 751 752 753
799 801 803 805 808 809 810 811 812 813 814 814 815 815 815 815 815 815 815 816 816 816 815 814 813 813 813 812 812 812 812 811 811 810 810 810 810 809 808 807 807 806 806 806 806 806 805 803 799 797 797 796 794 792 791 789 787 785 784 782 780 779 777 775 774 772 769 767 765 763 760 757 755 753 752 750 748 747 746 745 745 745 745 746 747
797 799 801 803 805 806 808 809 810 811 812 812 813 813 813 813 813 813 813 813 814 814 813 813 812 812 811 811 811 811 810 809 808 808 808 808 807 806 805 805 804 804 803 803 803 803 803 801 799 796 793 792 791 789 788 787 785 782 780 777 776 776 774 771 768 767 765 762 760 758 756 752 750 748 746 745 743 741 740 739 738 738 739 739 740
796 798 799 801 802 804 805 807 808 809 809 810 810 810 810 810 811 811 811 811 812 812 811 811 810 810 810 809 809 809 808 807 806 806 806 805 804 803 803 802 802 801 801 800 800 800 800 799 797 794 791 789 788 786 784 784 783 780 778 775 772 770 770 768 764 762 760 757 754 753 751 748 745 743 740 738 737 735 734 733 732 731 732 733 734
794 795 797 799 801 802 803 804 805 805 806 806 807 807 807 808 808 808 808 809 809 810 809 809 808 808 808 807 807 807 806 805 804 804 803 803 802 801 800 800 799 799 798 798 797 797 797 796 795 792 790 787 786 784 782 781 780 777 776 774 769 766 765 763 760 758 755 752 748 746 744 743 740 737 735 732 731 730 728 726 725 725 725 726 727
792 794 796 798 799 800 800 801 801 802 802 803 803 804 804 805 805 806 806 807 807 807 807 807 806 806 805 805 805 805 804 803 802 801 800 800 799 798 798 798 797 797 796 795 795 794 794 793 792 790 788 786 783 782 780 779 777 774 773 771 767 764 761 757 755 754 752 747 743 739 737 738 735 732 729 727 724 724 723 720 719 718 718 720 721
791 792 794 795 796 797 797 797 798 798 799 800 800 801 802 802 803 803 804 804 805 805 805 804 804 803 803 803 803 802 802 800 800 799 798 797 796 795 795 795 794 794 793 793 792 791 791 790 789 788 786 784 781 779 778 775 774 772 771 769 765 761 759 753 747 747 748 744 738 733 731 732 731 727 724 722 719 718 717 715 714 713 713 713 715
790 791 792 792 793 793 794 794 795 795 796 796 797 798 799 800 800 801 801 802 802 802 802 801 801 801 801 801 801 800 799 798 797 796 795 794 793 793 792 792 792 791 791 790 789 788 788 787 786 786 785 782 779 777 774 772 771 770 769 767 764 760 758 752 743 739 741 743 737 728 722 724 726 721 717 715 713 711 710 709 708 708 708 708 708
788 788 789 789 790 790 791 791 792 792 792 794 795 796 796 797 798 798 798 799 799 799 799 798 798 798 798 798 798 798 797 796 795 794 792 791 791 790 789 789 789 788 787 787 786 785 785 784 783 784 782 780 778 775 772 770 769 768 766 764 762 759 755 752 744 735 734 738 736 725 715 714 718 715 708 706 705 704 703 701 701 701 702 702 703
784 785 786 786 787 788 788 788 788 789 790 791 792 793 793 794 795 795 795 795 795 795 796 795 795 795 795 796 795 795 794 793 792 791 790 789 788 787 787 786 786 785 784 784 783 783 782 782 781 781 780 778 776 773 770 769 767 765 763 760 759 757 753 748 742 734 730 734 733 723 710 706 711 709 701 698 698 697 695 694 694 695 695 696 698
780 781 783 784 784 785 785 785 786 787 788 789 790 790 791 791 792 792 792 792 792 792 792 793 794 793 793 793 793 792 792 791 790 789 788 787 785 784 784 783 783 782 782 781 781 780 780 780 779 778 776 775 774 771 768 767 765 762 760 758 756 753 749 743 737 731 727 728 729 721 706 699 704 703 694 691 691 689 688 687 687 688 689 690 692
777 778 780 781 782 782 782 783 784 784 785 786 787 787 788 789 789 790 789 789 789 789 789 791 792 791 790 790 790 790 790 789 788 787 785 784 782 781 781 781 780 780 779 779 778 778 777 777 776 775 773 772 770 768 766 764 762 759 757 755 752 748 744 739 733 727 722 721 723 718 703 694 697 695 686 683 685 683 680 680 680 681 682 684 685
774 775 777 779 779 779 779 780 781 781 782 783 784 785 786 786 787 787 787 786 786 786 786 787 788 788 788 788 788 788 788 787 786 785 783 781 780 779 778 778 778 777 776 776 776 775 774 774 772 772 770 768 767 765 763 761 758 756 753 750 747 744 740 735 728 722 716 713 715 713 701 690 689 687 679 677 678 677 674 674 673 674 675 677 679
771 772 775 776 776 777 777 777 778 778 780 781 782 783 783 784 784 784 784 784 783 784 784 784 785 785 786 786 786 786 786 785 784 782 781 779 777 777 777 776 776 775 774 773 773 772 771 770 769 768 766 764 762 760 758 757 754 753 751 747 743 741 737 731 724 717 710 706 705 704 697 687 681 678 674 671 671 671 669 668 668 668 670 671 673
769 771 773 774 775 775 774 774 775 776 777 778 779 779 779 780 780 781 781 781 781 781 782 782 783 783 784 784 785 784 784 782 781 780 778 777 776 775 775 775 774 773 772 771 770 768 768 767 765 763 761 759 758 755 754 752 751 750 749 745 740 738 735 729 721 713 703 698 698 697 690 680 675 672 669 667 665 663 663 662 662 663 664 665 667
769 770 771 772 772 773 772 772 773 773 774 775 775 776 775 776 777 778 778 779 779 779 779 780 781 781 782 783 783 782 781 780 779 778 776 775 774 774 774 774 774 773 771 770 768 766 764 762 761 759 757 755 754 752 750 749 747 746 744 741 738 736 732 726 720 712 699 688 688 691 684 674 669 666 665 664 662 657 656 656 655 656 658 660 661